START_TIME,STEP,MOV.,A46,t_acc.,A13,t_acc.,M47,t_acc.,A17,t_acc.,A28,t_acc.,M38,t_acc.
1979-08-01 15:00:24.380 ,1,0,,0,1.,4.8,0.,4.8,,0,0.,4.8,0.,4.8
1979-08-01 15:00:29.180 ,1,0,,0,4.,4.8,0.,4.8,,0,0.,4.8,1.,4.8
1979-08-01 15:00:33.980 ,1,0,,0,4.,4.8,0.,4.8,,0,0.,4.8,0.,4.8
1979-08-01 15:00:38.780 ,1,0,,0,0.,4.8,0.,4.8,,0,0.,4.8,2.,4.8
1979-08-01 15:00:43.580 ,1,0,,0,0.,4.8,0.,4.8,,0,0.,4.8,2.,4.8
1979-08-01 15:00:48.380 ,2,0,,0,0.,4.8,0.,4.8,,0,0.,4.8,0.,4.8
1979-08-01 15:00:53.180 ,2,0,,0,0.,4.8,0.,4.8,,0,0.,4.8,1.,4.8
1979-08-01 15:00:57.980 ,2,0,,0,1.,4.8,0.,4.8,,0,0.,4.8,0.,4.8
1979-08-01 15:01:02.780 ,2,0,,0,2.,4.8,0.,4.8,,0,0.,4.8,0.,4.8
1979-08-01 15:01:07.580 ,2,0,,0,4.,4.8,0.,4.8,,0,0.,4.8,0.,4.8
1979-08-01 15:01:12.380 ,2,0,,0,3.,4.8,1.,4.8,,0,0.,4.8,1.,4.8
1979-08-01 15:01:17.180 ,2,0,,0,4.,4.8,0.,4.8,,0,0.,4.8,1.,4.8
1979-08-01 15:01:21.980 ,2,0,,0,5.,4.8,0.,4.8,,0,0.,4.8,0.,4.8
1979-08-01 15:01:26.780 ,2,0,,0,0.,4.8,0.,4.8,,0,0.,4.8,0.,4.8
1979-08-01 15:01:31.580 ,2,0,,0,0.,4.8,0.,4.8,,0,0.,4.8,0.,4.8
1979-08-01 15:01:36.380 ,3,0,,0,0.,4.8,0.,4.8,,0,0.,4.8,1.,4.8
1979-08-01 15:01:41.180 ,3,0,,0,0.,4.8,0.,4.8,,0,0.,4.8,0.,4.8
1979-08-01 15:01:45.980 ,3,0,,0,0.,4.8,0.,4.8,,0,0.,4.8,3.,4.8
1979-08-01 15:01:50.780 ,3,0,,0,5.,4.8,0.,4.8,,0,0.,4.8,2.,4.8
1979-08-01 15:01:55.580 ,3,0,,0,9.,4.8,0.,4.8,,0,0.,4.8,0.,4.8
1979-08-01 15:02:00.380 ,3,0,,0,6.,4.8,2.,4.8,,0,0.,4.8,1.,4.8
1979-08-01 15:02:05.180 ,3,0,,0,6.,4.8,1.,4.8,,0,0.,4.8,0.,4.8
1979-08-01 15:02:09.980 ,3,0,,0,3.,4.8,0.,4.8,,0,0.,4.8,1.,4.8
1979-08-01 15:02:14.780 ,3,0,,0,0.,4.8,0.,4.8,,0,0.,4.8,0.,4.8
1979-08-01 15:02:19.580 ,3,0,,0,0.,4.8,0.,4.8,,0,0.,4.8,1.,4.8
1979-08-01 15:02:24.380 ,4,0,,0,0.,4.8,0.,4.8,,0,0.,4.8,0.,4.8
1979-08-01 15:02:29.180 ,4,0,,0,0.,4.8,0.,4.8,,0,0.,4.8,1.,4.8
1979-08-01 15:02:33.980 ,4,0,,0,0.,4.8,0.,4.8,,0,0.,4.8,0.,4.8
1979-08-01 15:02:38.780 ,4,0,,0,3.,4.8,0.,4.8,,0,0.,4.8,1.,4.8
1979-08-01 15:02:43.580 ,4,0,,0,7.,4.8,1.,4.8,,0,0.,4.8,1.,4.8
1979-08-01 15:02:48.380 ,4,0,,0,2.,4.8,0.,4.8,,0,0.,4.8,1.,4.8
1979-08-01 15:02:53.180 ,4,0,,0,4.,4.8,0.,4.8,,0,0.,4.8,0.,4.8
1979-08-01 15:02:57.980 ,4,0,,0,4.,4.8,0.,4.8,,0,0.,4.8,1.,4.8
1979-08-01 15:03:02.780 ,4,0,,0,0.,4.8,0.,4.8,,0,0.,4.8,0.,4.8
1979-08-01 15:03:07.580 ,4,0,,0,0.,4.8,0.,4.8,,0,0.,4.8,0.,4.8
1979-08-01 15:03:12.380 ,5,0,,0,0.,4.8,0.,4.8,,0,0.,4.8,1.,4.8
1979-08-01 15:03:17.180 ,5,0,,0,0.,4.8,0.,4.8,,0,0.,4.8,0.,4.8
1979-08-01 15:03:21.980 ,5,0,,0,2.,4.8,0.,4.8,,0,0.,4.8,1.,4.8
1979-08-01 15:03:26.780 ,5,0,,0,7.,4.8,1.,4.8,,0,0.,4.8,0.,4.8
1979-08-01 15:03:31.580 ,5,0,,0,3.,4.8,1.,4.8,,0,0.,4.8,0.,4.8
1979-08-01 15:03:36.380 ,5,0,,0,9.,4.8,1.,4.8,,0,0.,4.8,1.,4.8
1979-08-01 15:03:41.180 ,5,0,,0,2.,4.8,0.,4.8,,0,0.,4.8,0.,4.8
1979-08-01 15:03:45.980 ,5,0,,0,3.,4.8,0.,4.8,,0,0.,4.8,0.,4.8
1979-08-01 15:03:50.780 ,5,0,,0,0.,4.8,0.,4.8,,0,0.,4.8,1.,4.8
1979-08-01 15:03:55.580 ,5,0,,0,0.,4.8,0.,4.8,,0,0.,4.8,0.,4.8
1979-08-01 15:04:00.380 ,6,0,,0,0.,4.8,0.,4.8,,0,0.,4.8,0.,4.8
1979-08-01 15:04:05.180 ,6,0,,0,0.,4.8,0.,4.8,,0,0.,4.8,0.,4.8
1979-08-01 15:04:09.980 ,6,0,,0,1.,4.8,0.,4.8,,0,0.,4.8,0.,4.8
1979-08-01 15:04:14.780 ,6,0,,0,3.,4.8,0.,4.8,,0,1.,4.8,3.,4.8
1979-08-01 15:04:19.580 ,6,0,,0,5.,4.8,0.,4.8,,0,0.,4.8,3.,4.8
1979-08-01 15:04:24.380 ,6,0,,0,9.,4.8,2.,4.8,,0,0.,4.8,1.,4.8
1979-08-01 15:04:29.180 ,6,0,,0,3.,4.8,0.,4.8,,0,0.,4.8,1.,4.8
1979-08-01 15:04:33.980 ,6,0,,0,6.,4.8,1.,4.8,,0,0.,4.8,1.,4.8
1979-08-01 15:04:38.780 ,6,0,,0,0.,4.8,0.,4.8,,0,0.,4.8,0.,4.8
1979-08-01 15:04:43.580 ,6,0,,0,0.,4.8,0.,4.8,,0,0.,4.8,2.,4.8
1979-08-01 15:04:48.380 ,7,0,,0,0.,4.8,0.,4.8,,0,0.,4.8,1.,4.8
1979-08-01 15:04:53.180 ,7,0,,0,0.,4.8,0.,4.8,,0,0.,4.8,0.,4.8
1979-08-01 15:04:57.980 ,7,0,,0,2.,4.8,0.,4.8,,0,0.,4.8,0.,4.8
1979-08-01 15:05:02.780 ,7,0,,0,7.,4.8,0.,4.8,,0,0.,4.8,0.,4.8
1979-08-01 15:05:07.580 ,7,0,,0,11.,4.8,0.,4.8,,0,0.,4.8,0.,4.8
1979-08-01 15:05:12.380 ,0,0,,0,13.,4.8,0.,4.8,,0,0.,4.8,0.,4.8
1979-08-01 15:05:17.180 ,0,0,,0,13.,4.8,0.,4.8,,0,0.,4.8,0.,4.8
1979-08-01 15:05:21.980 ,0,0,,0,0.,4.8,1.,4.8,,0,0.,4.8,0.,4.8
1979-08-01 15:05:26.780 ,0,0,,0,1.,4.8,1.,4.8,,0,1.,4.8,0.,4.8
1979-08-01 15:05:31.580 ,0,0,,0,0.,4.8,0.,4.8,,0,0.,4.8,0.,4.8
1979-08-01 15:05:36.380 ,7,0,,0,0.,4.8,0.,4.8,,0,0.,4.8,0.,4.8
1979-08-01 15:05:41.180 ,7,0,,0,0.,4.8,0.,4.8,,0,0.,4.8,0.,4.8
1979-08-01 15:05:45.980 ,7,0,,0,1.,4.8,0.,4.8,,0,0.,4.8,0.,4.8
1979-08-01 15:05:50.780 ,7,0,,0,10.,4.8,0.,4.8,,0,0.,4.8,0.,4.8
1979-08-01 15:05:55.580 ,7,0,,0,9.,4.8,0.,4.8,,0,0.,4.8,0.,4.8
1979-08-01 15:06:00.380 ,7,0,,0,8.,4.8,0.,4.8,,0,0.,4.8,0.,4.8
1979-08-01 15:06:05.180 ,7,0,,0,10.,4.8,0.,4.8,,0,0.,4.8,0.,4.8
1979-08-01 15:06:09.980 ,7,0,,0,6.,4.8,0.,4.8,,0,0.,4.8,0.,4.8
1979-08-01 15:06:14.780 ,7,0,,0,0.,4.8,0.,4.8,,0,0.,4.8,0.,4.8
1979-08-01 15:06:19.580 ,7,0,,0,0.,4.8,0.,4.8,,0,0.,4.8,0.,4.8
1979-08-01 15:06:24.380 ,6,0,,0,0.,4.8,0.,4.8,,0,0.,4.8,0.,4.8
1979-08-01 15:06:29.180 ,6,0,,0,0.,4.8,0.,4.8,,0,0.,4.8,0.,4.8
1979-08-01 15:06:33.980 ,6,0,,0,0.,4.8,0.,4.8,,0,0.,4.8,1.,4.8
1979-08-01 15:06:38.780 ,6,0,,0,5.,4.8,0.,4.8,,0,0.,4.8,0.,4.8
1979-08-01 15:06:43.580 ,6,0,,0,9.,4.8,1.,4.8,,0,0.,4.8,1.,4.8
1979-08-01 15:06:48.380 ,6,0,,0,7.,4.8,1.,4.8,,0,0.,4.8,0.,4.8
1979-08-01 15:06:53.180 ,6,0,,0,8.,4.8,0.,4.8,,0,0.,4.8,3.,4.8
1979-08-01 15:06:57.980 ,6,0,,0,6.,4.8,0.,4.8,,0,0.,4.8,2.,4.8
1979-08-01 15:07:02.780 ,6,0,,0,1.,4.8,0.,4.8,,0,0.,4.8,0.,4.8
1979-08-01 15:07:07.580 ,6,0,,0,0.,4.8,0.,4.8,,0,0.,4.8,3.,4.8
1979-08-01 15:07:12.380 ,5,0,,0,0.,4.8,0.,4.8,,0,0.,4.8,0.,4.8
1979-08-01 15:07:17.180 ,5,0,,0,0.,4.8,0.,4.8,,0,0.,4.8,0.,4.8
1979-08-01 15:07:21.980 ,5,0,,0,1.,4.8,0.,4.8,,0,0.,4.8,0.,4.8
1979-08-01 15:07:26.780 ,5,0,,0,5.,4.8,0.,4.8,,0,0.,4.8,0.,4.8
1979-08-01 15:07:31.580 ,5,0,,0,7.,4.8,0.,4.8,,0,0.,4.8,0.,4.8
1979-08-01 15:07:36.380 ,5,0,,0,4.,4.8,0.,4.8,,0,0.,4.8,1.,4.8
1979-08-01 15:07:41.180 ,5,0,,0,3.,4.8,0.,4.8,,0,0.,4.8,0.,4.8
1979-08-01 15:07:45.980 ,5,0,,0,5.,4.8,0.,4.8,,0,0.,4.8,0.,4.8
1979-08-01 15:07:50.780 ,5,0,,0,0.,4.8,0.,4.8,,0,0.,4.8,0.,4.8
1979-08-01 15:07:55.580 ,5,0,,0,0.,4.8,0.,4.8,,0,0.,4.8,0.,4.8
1979-08-01 15:08:00.380 ,4,0,,0,0.,4.8,0.,4.8,,0,0.,4.8,0.,4.8
1979-08-01 15:08:05.180 ,4,0,,0,0.,4.8,0.,4.8,,0,0.,4.8,0.,4.8
1979-08-01 15:08:09.980 ,4,0,,0,0.,4.8,0.,4.8,,0,0.,4.8,0.,4.8
1979-08-01 15:08:14.780 ,4,0,,0,5.,4.8,0.,4.8,,0,0.,4.8,0.,4.8
1979-08-01 15:08:19.580 ,4,0,,0,6.,4.8,0.,4.8,,0,0.,4.8,0.,4.8
1979-08-01 15:08:24.380 ,4,0,,0,5.,4.8,0.,4.8,,0,0.,4.8,0.,4.8
1979-08-01 15:08:29.180 ,4,0,,0,6.,4.8,1.,4.8,,0,0.,4.8,0.,4.8
1979-08-01 15:08:33.980 ,4,0,,0,3.,4.8,0.,4.8,,0,0.,4.8,0.,4.8
1979-08-01 15:08:38.780 ,4,0,,0,0.,4.8,0.,4.8,,0,0.,4.8,0.,4.8
1979-08-01 15:08:43.580 ,4,0,,0,0.,4.8,0.,4.8,,0,0.,4.8,1.,4.8
1979-08-01 15:08:48.380 ,3,0,,0,0.,4.8,0.,4.8,,0,0.,4.8,0.,4.8
1979-08-01 15:08:53.180 ,3,0,,0,0.,4.8,0.,4.8,,0,0.,4.8,0.,4.8
1979-08-01 15:08:57.980 ,3,0,,0,1.,4.8,0.,4.8,,0,0.,4.8,0.,4.8
1979-08-01 15:09:02.780 ,3,0,,0,4.,4.8,0.,4.8,,0,0.,4.8,0.,4.8
1979-08-01 15:09:07.580 ,3,0,,0,7.,4.8,0.,4.8,,0,0.,4.8,0.,4.8
1979-08-01 15:09:12.380 ,3,0,,0,5.,4.8,0.,4.8,,0,0.,4.8,0.,4.8
1979-08-01 15:09:17.180 ,3,0,,0,4.,4.8,1.,4.8,,0,0.,4.8,1.,4.8
1979-08-01 15:09:21.980 ,3,0,,0,3.,4.8,0.,4.8,,0,0.,4.8,0.,4.8
1979-08-01 15:09:26.780 ,3,0,,0,0.,4.8,0.,4.8,,0,0.,4.8,0.,4.8
1979-08-01 15:09:31.580 ,3,0,,0,0.,4.8,0.,4.8,,0,0.,4.8,1.,4.8
1979-08-01 15:09:36.380 ,2,0,,0,0.,4.8,0.,4.8,,0,0.,4.8,0.,4.8
1979-08-01 15:09:41.180 ,2,0,,0,0.,4.8,0.,4.8,,0,0.,4.8,0.,4.8
1979-08-01 15:09:45.980 ,2,0,,0,1.,4.8,0.,4.8,,0,0.,4.8,1.,4.8
1979-08-01 15:09:50.780 ,2,0,,0,3.,4.8,0.,4.8,,0,0.,4.8,0.,4.8
1979-08-01 15:09:55.580 ,2,0,,0,4.,4.8,1.,4.8,,0,0.,4.8,2.,4.8
1979-08-01 15:10:00.380 ,2,0,,0,2.,4.8,0.,4.8,,0,0.,4.8,0.,4.8
1979-08-01 15:10:05.180 ,2,0,,0,5.,4.8,0.,4.8,,0,0.,4.8,2.,4.8
1979-08-01 15:10:09.980 ,2,0,,0,3.,4.8,1.,4.8,,0,0.,4.8,2.,4.8
1979-08-01 15:10:14.780 ,2,0,,0,0.,4.8,0.,4.8,,0,0.,4.8,0.,4.8
1979-08-01 15:10:19.580 ,2,0,,0,0.,4.8,0.,4.8,,0,0.,4.8,0.,4.8
1979-08-01 15:10:24.380 ,1,0,,0,0.,4.8,0.,4.8,,0,0.,4.8,2.,4.8
1979-08-01 15:10:29.180 ,1,0,,0,0.,4.8,0.,4.8,,0,0.,4.8,0.,4.8
1979-08-01 15:10:33.980 ,1,0,,0,0.,4.8,0.,4.8,,0,0.,4.8,0.,4.8
1979-08-01 15:10:38.780 ,1,0,,0,4.,4.8,0.,4.8,,0,0.,4.8,0.,4.8
1979-08-01 15:10:43.580 ,1,0,,0,6.,4.8,0.,4.8,,0,0.,4.8,0.,4.8
1979-08-01 15:10:48.380 ,1,0,,0,3.,4.8,1.,4.8,,0,0.,4.8,0.,4.8
1979-08-01 15:10:53.180 ,1,0,,0,4.,4.8,0.,4.8,,0,0.,4.8,2.,4.8
1979-08-01 15:10:57.980 ,1,0,,0,8.,4.8,0.,4.8,,0,0.,4.8,0.,4.8
1979-08-01 15:11:02.780 ,1,0,,0,0.,4.8,0.,4.8,,0,0.,4.8,2.,4.8
1979-08-01 15:11:07.580 ,1,0,,0,0.,4.8,0.,4.8,,0,0.,4.8,2.,4.8
1979-08-01 15:11:12.380 ,0,0,,0,0.,4.8,0.,4.8,,0,0.,4.8,2.,4.8
1979-08-01 15:11:17.180 ,0,0,,0,0.,4.8,0.,4.8,,0,0.,4.8,1.,4.8
1979-08-01 15:11:21.980 ,0,0,,0,1.,4.8,0.,4.8,,0,0.,4.8,0.,4.8
1979-08-01 15:11:26.780 ,0,0,,0,0.,4.8,0.,4.8,,0,0.,4.8,0.,4.8
1979-08-01 15:11:31.580 ,0,0,,0,1.,4.8,0.,4.8,,0,1.,4.8,0.,4.8
1979-08-01 15:11:36.380 ,0,0,,0,0.,4.8,1.,4.8,,0,0.,4.8,0.,4.8
1979-08-01 15:11:41.180 ,0,0,,0,0.,4.8,0.,4.8,,0,0.,4.8,0.,4.8
1979-08-01 15:11:45.980 ,0,0,,0,0.,4.8,0.,4.8,,0,0.,4.8,0.,4.8
1979-08-01 15:11:50.780 ,0,0,,0,0.,4.8,2.,4.8,,0,0.,4.8,0.,4.8
1979-08-01 15:11:55.580 ,0,0,,0,0.,4.8,0.,4.8,,0,0.,4.8,0.,4.8
1979-08-01 15:12:00.380 ,0,0,,0,0.,4.8,0.,4.8,,0,0.,4.8,1.,4.8
1979-08-01 15:12:05.180 ,0,0,,0,0.,4.8,0.,4.8,,0,0.,4.8,1.,4.8
1979-08-01 15:12:09.980 ,0,0,,0,0.,4.8,0.,4.8,,0,0.,4.8,1.,4.8
1979-08-01 15:12:14.780 ,0,0,,0,7.,4.8,2.,4.8,,0,0.,4.8,0.,4.8
1979-08-01 15:12:19.580 ,0,0,,0,3.,4.8,0.,4.8,,0,0.,4.8,0.,4.8
1979-08-01 15:12:24.380 ,0,0,,0,1.,4.8,0.,4.8,,0,0.,4.8,0.,4.8
1979-08-01 15:12:29.180 ,0,0,,0,5.,4.8,1.,4.8,,0,0.,4.8,5.,4.8
1979-08-01 15:12:33.980 ,0,0,,0,6.,4.8,0.,4.8,,0,0.,4.8,0.,4.8
1979-08-01 15:12:38.780 ,0,0,,0,0.,4.8,0.,4.8,,0,0.,4.8,2.,4.8
1979-08-01 15:12:43.580 ,0,0,,0,1.,4.8,0.,4.8,,0,0.,4.8,1.,4.8
1979-08-01 15:12:48.380 ,1,0,,0,0.,4.8,0.,4.8,,0,0.,4.8,0.,4.8
1979-08-01 15:12:53.180 ,1,0,,0,0.,4.8,0.,4.8,,0,0.,4.8,1.,4.8
1979-08-01 15:12:57.980 ,1,0,,0,1.,4.8,0.,4.8,,0,0.,4.8,2.,4.8
1979-08-01 15:13:02.780 ,1,0,,0,2.,4.8,0.,4.8,,0,0.,4.8,0.,4.8
1979-08-01 15:13:07.580 ,1,0,,0,2.,4.8,0.,4.8,,0,0.,4.8,0.,4.8
1979-08-01 15:13:12.380 ,1,0,,0,6.,4.8,2.,4.8,,0,0.,4.8,1.,4.8
1979-08-01 15:13:17.180 ,1,0,,0,6.,4.8,0.,4.8,,0,0.,4.8,0.,4.8
1979-08-01 15:13:21.980 ,1,0,,0,0.,4.8,0.,4.8,,0,0.,4.8,1.,4.8
1979-08-01 15:13:26.780 ,1,0,,0,0.,4.8,0.,4.8,,0,0.,4.8,2.,4.8
1979-08-01 15:13:31.580 ,1,0,,0,0.,4.8,0.,4.8,,0,0.,4.8,1.,4.8
1979-08-01 15:13:36.380 ,2,0,,0,0.,4.8,0.,4.8,,0,0.,4.8,1.,4.8
1979-08-01 15:13:41.180 ,2,0,,0,0.,4.8,0.,4.8,,0,0.,4.8,0.,4.8
1979-08-01 15:13:45.980 ,2,0,,0,0.,4.8,0.,4.8,,0,0.,4.8,0.,4.8
1979-08-01 15:13:50.780 ,2,0,,0,1.,4.8,0.,4.8,,0,0.,4.8,1.,4.8
1979-08-01 15:13:55.580 ,2,0,,0,1.,4.8,0.,4.8,,0,0.,4.8,0.,4.8
1979-08-01 15:14:00.380 ,2,0,,0,1.,4.8,0.,4.8,,0,0.,4.8,0.,4.8
1979-08-01 15:14:05.180 ,2,0,,0,2.,4.8,0.,4.8,,0,0.,4.8,0.,4.8
1979-08-01 15:14:09.980 ,2,0,,0,4.,4.8,0.,4.8,,0,0.,4.8,0.,4.8
1979-08-01 15:14:14.780 ,2,0,,0,0.,4.8,0.,4.8,,0,0.,4.8,0.,4.8
1979-08-01 15:14:19.580 ,2,0,,0,0.,4.8,0.,4.8,,0,0.,4.8,0.,4.8
1979-08-01 15:14:24.380 ,3,0,,0,0.,4.8,0.,4.8,,0,0.,4.8,0.,4.8
1979-08-01 15:14:29.180 ,3,0,,0,0.,4.8,0.,4.8,,0,0.,4.8,0.,4.8
1979-08-01 15:14:33.980 ,3,0,,0,0.,4.8,0.,4.8,,0,0.,4.8,0.,4.8
1979-08-01 15:14:38.780 ,3,0,,0,4.,4.8,0.,4.8,,0,0.,4.8,0.,4.8
1979-08-01 15:14:43.580 ,3,0,,0,4.,4.8,0.,4.8,,0,0.,4.8,0.,4.8
1979-08-01 15:14:48.380 ,3,0,,0,3.,4.8,0.,4.8,,0,0.,4.8,1.,4.8
1979-08-01 15:14:53.180 ,3,0,,0,4.,4.8,0.,4.8,,0,0.,4.8,0.,4.8
1979-08-01 15:14:57.980 ,3,0,,0,3.,4.8,0.,4.8,,0,0.,4.8,0.,4.8
1979-08-01 15:15:02.780 ,3,0,,0,0.,4.8,0.,4.8,,0,0.,4.8,0.,4.8
1979-08-01 15:15:07.580 ,3,0,,0,0.,4.8,0.,4.8,,0,1.,4.8,1.,4.8
1979-08-01 15:15:12.380 ,4,0,,0,0.,4.8,0.,4.8,,0,0.,4.8,0.,4.8
1979-08-01 15:15:17.180 ,4,0,,0,0.,4.8,0.,4.8,,0,0.,4.8,0.,4.8
1979-08-01 15:15:21.980 ,4,0,,0,0.,4.8,0.,4.8,,0,0.,4.8,0.,4.8
1979-08-01 15:15:26.780 ,4,0,,0,4.,4.8,0.,4.8,,0,0.,4.8,3.,4.8
1979-08-01 15:15:31.580 ,4,0,,0,3.,4.8,1.,4.8,,0,0.,4.8,1.,4.8
1979-08-01 15:15:36.380 ,4,0,,0,5.,4.8,1.,4.8,,0,0.,4.8,0.,4.8
1979-08-01 15:15:41.180 ,4,0,,0,4.,4.8,0.,4.8,,0,0.,4.8,0.,4.8
1979-08-01 15:15:45.980 ,4,0,,0,3.,4.8,0.,4.8,,0,0.,4.8,1.,4.8
1979-08-01 15:15:50.780 ,4,0,,0,0.,4.8,0.,4.8,,0,0.,4.8,1.,4.8
1979-08-01 15:15:55.580 ,4,0,,0,0.,4.8,0.,4.8,,0,0.,4.8,0.,4.8
1979-08-01 15:16:00.380 ,5,0,,0,0.,4.8,0.,4.8,,0,0.,4.8,2.,4.8
1979-08-01 15:16:05.180 ,5,0,,0,0.,4.8,0.,4.8,,0,0.,4.8,0.,4.8
1979-08-01 15:16:09.980 ,5,0,,0,0.,4.8,0.,4.8,,0,0.,4.8,1.,4.8
1979-08-01 15:16:14.780 ,5,0,,0,1.,4.8,0.,4.8,,0,0.,4.8,0.,4.8
1979-08-01 15:16:19.580 ,5,0,,0,2.,4.8,0.,4.8,,0,0.,4.8,0.,4.8
1979-08-01 15:16:24.380 ,5,0,,0,2.,4.8,0.,4.8,,0,0.,4.8,0.,4.8
1979-08-01 15:16:29.180 ,5,0,,0,7.,4.8,0.,4.8,,0,0.,4.8,1.,4.8
1979-08-01 15:16:33.980 ,5,0,,0,6.,4.8,0.,4.8,,0,0.,4.8,1.,4.8
1979-08-01 15:16:38.780 ,5,0,,0,0.,4.8,0.,4.8,,0,0.,4.8,2.,4.8
1979-08-01 15:16:43.580 ,5,0,,0,0.,4.8,0.,4.8,,0,0.,4.8,1.,4.8
1979-08-01 15:16:48.380 ,6,0,,0,0.,4.8,0.,4.8,,0,0.,4.8,0.,4.8
1979-08-01 15:16:53.180 ,6,0,,0,0.,4.8,0.,4.8,,0,0.,4.8,0.,4.8
1979-08-01 15:16:57.980 ,6,0,,0,1.,4.8,1.,4.8,,0,0.,4.8,2.,4.8
1979-08-01 15:17:02.780 ,6,0,,0,5.,4.8,0.,4.8,,0,0.,4.8,2.,4.8
1979-08-01 15:17:07.580 ,6,0,,0,5.,4.8,0.,4.8,,0,0.,4.8,0.,4.8
1979-08-01 15:17:12.380 ,6,0,,0,6.,4.8,1.,4.8,,0,0.,4.8,0.,4.8
1979-08-01 15:17:17.180 ,6,0,,0,6.,4.8,0.,4.8,,0,0.,4.8,1.,4.8
1979-08-01 15:17:21.980 ,6,0,,0,5.,4.8,1.,4.8,,0,0.,4.8,0.,4.8
1979-08-01 15:17:26.780 ,6,0,,0,0.,4.8,0.,4.8,,0,0.,4.8,1.,4.8
1979-08-01 15:17:31.580 ,6,0,,0,0.,4.8,0.,4.8,,0,0.,4.8,2.,4.8
1979-08-01 15:18:24.380 ,0,0,,0,0.,4.8,0.,4.8,,0,0.,4.8,0.,4.8
1979-08-01 15:18:29.180 ,0,0,,0,0.,4.8,0.,4.8,,0,0.,4.8,0.,4.8
1979-08-01 15:18:33.980 ,0,0,,0,3.,4.8,0.,4.8,,0,0.,4.8,0.,4.8
1979-08-01 15:18:38.780 ,0,0,,0,7.,4.8,0.,4.8,,0,0.,4.8,0.,4.8
1979-08-01 15:18:43.580 ,0,0,,0,2.,4.8,0.,4.8,,0,0.,4.8,0.,4.8
1979-08-01 15:18:48.380 ,0,0,,0,11.,4.8,0.,4.8,,0,0.,4.8,0.,4.8
1979-08-01 15:18:53.180 ,0,0,,0,13.,4.8,0.,4.8,,0,0.,4.8,0.,4.8
1979-08-01 15:18:57.980 ,0,0,,0,5.,4.8,0.,4.8,,0,0.,4.8,0.,4.8
1979-08-01 15:19:02.780 ,0,0,,0,0.,4.8,0.,4.8,,0,0.,4.8,0.,4.8
1979-08-01 15:19:07.580 ,0,0,,0,0.,4.8,0.,4.8,,0,0.,4.8,0.,4.8
1979-08-01 15:19:12.380 ,6,0,,0,0.,4.8,0.,4.8,,0,0.,4.8,0.,4.8
1979-08-01 15:19:17.180 ,6,0,,0,0.,4.8,0.,4.8,,0,0.,4.8,0.,4.8
1979-08-01 15:19:21.980 ,6,0,,0,0.,4.8,0.,4.8,,0,1.,4.8,0.,4.8
1979-08-01 15:19:26.780 ,6,0,,0,3.,4.8,1.,4.8,,0,0.,4.8,0.,4.8
1979-08-01 15:19:31.580 ,6,0,,0,2.,4.8,1.,4.8,,0,0.,4.8,3.,4.8
1979-08-01 15:19:36.380 ,6,0,,0,8.,4.8,1.,4.8,,0,0.,4.8,1.,4.8
1979-08-01 15:19:41.180 ,6,0,,0,5.,4.8,1.,4.8,,0,0.,4.8,1.,4.8
1979-08-01 15:19:45.980 ,6,0,,0,6.,4.8,1.,4.8,,0,0.,4.8,0.,4.8
1979-08-01 15:19:50.780 ,6,0,,0,0.,4.8,0.,4.8,,0,0.,4.8,0.,4.8
1979-08-01 15:19:55.580 ,6,0,,0,0.,4.8,0.,4.8,,0,0.,4.8,3.,4.8
1979-08-01 15:20:00.380 ,5,0,,0,0.,4.8,0.,4.8,,0,0.,4.8,3.,4.8
1979-08-01 15:20:05.180 ,5,0,,0,0.,4.8,0.,4.8,,0,0.,4.8,3.,4.8
1979-08-01 15:20:09.980 ,5,0,,0,1.,4.8,0.,4.8,,0,0.,4.8,1.,4.8
1979-08-01 15:20:14.780 ,5,0,,0,5.,4.8,0.,4.8,,0,0.,4.8,0.,4.8
1979-08-01 15:20:19.580 ,5,0,,0,4.,4.8,0.,4.8,,0,0.,4.8,1.,4.8
1979-08-01 15:20:24.380 ,5,0,,0,5.,4.8,0.,4.8,,0,0.,4.8,0.,4.8
1979-08-01 15:20:29.180 ,5,0,,0,1.,4.8,0.,4.8,,0,0.,4.8,0.,4.8
1979-08-01 15:20:33.980 ,5,0,,0,3.,4.8,0.,4.8,,0,0.,4.8,0.,4.8
1979-08-01 15:20:38.780 ,5,0,,0,0.,4.8,0.,4.8,,0,0.,4.8,1.,4.8
1979-08-01 15:20:43.580 ,5,0,,0,0.,4.8,0.,4.8,,0,0.,4.8,1.,4.8
1979-08-01 15:20:48.380 ,4,0,,0,1.,4.8,0.,4.8,,0,0.,4.8,0.,4.8
1979-08-01 15:20:53.180 ,4,0,,0,0.,4.8,0.,4.8,,0,0.,4.8,0.,4.8
1979-08-01 15:20:57.980 ,4,0,,0,2.,4.8,1.,4.8,,0,0.,4.8,0.,4.8
1979-08-01 15:21:02.780 ,4,0,,0,2.,4.8,0.,4.8,,0,0.,4.8,1.,4.8
1979-08-01 15:21:07.580 ,4,0,,0,4.,4.8,0.,4.8,,0,0.,4.8,1.,4.8
1979-08-01 15:21:12.380 ,4,0,,0,5.,4.8,0.,4.8,,0,0.,4.8,0.,4.8
1979-08-01 15:21:17.180 ,4,0,,0,6.,4.8,1.,4.8,,0,0.,4.8,1.,4.8
1979-08-01 15:21:21.980 ,4,0,,0,2.,4.8,0.,4.8,,0,0.,4.8,0.,4.8
1979-08-01 15:21:26.780 ,4,0,,0,0.,4.8,0.,4.8,,0,0.,4.8,0.,4.8
1979-08-01 15:21:31.580 ,4,0,,0,0.,4.8,0.,4.8,,0,0.,4.8,1.,4.8
1979-08-01 15:21:36.380 ,3,0,,0,0.,4.8,0.,4.8,,0,1.,4.8,1.,4.8
1979-08-01 15:21:41.180 ,3,0,,0,0.,4.8,0.,4.8,,0,0.,4.8,2.,4.8
1979-08-01 15:21:45.980 ,3,0,,0,3.,4.8,1.,4.8,,0,0.,4.8,0.,4.8
1979-08-01 15:21:50.780 ,3,0,,0,4.,4.8,0.,4.8,,0,0.,4.8,1.,4.8
1979-08-01 15:21:55.580 ,3,0,,0,5.,4.8,0.,4.8,,0,0.,4.8,1.,4.8
1979-08-01 15:22:00.380 ,3,0,,0,3.,4.8,0.,4.8,,0,0.,4.8,0.,4.8
1979-08-01 15:22:05.180 ,3,0,,0,7.,4.8,2.,4.8,,0,0.,4.8,0.,4.8
1979-08-01 15:22:09.980 ,3,0,,0,3.,4.8,0.,4.8,,0,0.,4.8,1.,4.8
1979-08-01 15:22:14.780 ,3,0,,0,0.,4.8,0.,4.8,,0,0.,4.8,1.,4.8
1979-08-01 15:22:19.580 ,3,0,,0,0.,4.8,0.,4.8,,0,0.,4.8,0.,4.8
1979-08-01 15:22:24.380 ,2,0,,0,0.,4.8,0.,4.8,,0,0.,4.8,0.,4.8
1979-08-01 15:22:29.180 ,2,0,,0,0.,4.8,0.,4.8,,0,0.,4.8,1.,4.8
1979-08-01 15:22:33.980 ,2,0,,0,0.,4.8,0.,4.8,,0,0.,4.8,1.,4.8
1979-08-01 15:22:38.780 ,2,0,,0,5.,4.8,0.,4.8,,0,0.,4.8,0.,4.8
1979-08-01 15:22:43.580 ,2,0,,0,2.,4.8,0.,4.8,,0,1.,4.8,0.,4.8
1979-08-01 15:22:48.380 ,2,0,,0,3.,4.8,0.,4.8,,0,0.,4.8,1.,4.8
1979-08-01 15:22:53.180 ,2,0,,0,4.,4.8,0.,4.8,,0,0.,4.8,2.,4.8
1979-08-01 15:22:57.980 ,2,0,,0,2.,4.8,0.,4.8,,0,0.,4.8,0.,4.8
1979-08-01 15:23:02.780 ,2,0,,0,0.,4.8,0.,4.8,,0,0.,4.8,0.,4.8
1979-08-01 15:23:07.580 ,2,0,,0,1.,4.8,0.,4.8,,0,0.,4.8,2.,4.8
1979-08-01 15:24:00.380 ,0,0,,0,0.,4.8,0.,4.8,,0,0.,4.8,0.,4.8
1979-08-01 15:24:05.180 ,0,0,,0,0.,4.8,0.,4.8,,0,0.,4.8,1.,4.8
1979-08-01 15:24:09.980 ,0,0,,0,0.,4.8,0.,4.8,,0,0.,4.8,0.,4.8
1979-08-01 15:24:14.780 ,0,0,,0,6.,4.8,2.,4.8,,0,0.,4.8,3.,4.8
1979-08-01 15:24:19.580 ,0,0,,0,4.,4.8,0.,4.8,,0,0.,4.8,2.,4.8
1979-08-01 15:24:24.380 ,0,0,,0,3.,4.8,0.,4.8,,0,0.,4.8,2.,4.8
1979-08-01 15:24:29.180 ,0,0,,0,7.,4.8,3.,4.8,,0,0.,4.8,1.,4.8
1979-08-01 15:24:33.980 ,0,0,,0,3.,4.8,0.,4.8,,0,0.,4.8,2.,4.8
1979-08-01 15:24:38.780 ,0,0,,0,0.,4.8,0.,4.8,,0,0.,4.8,0.,4.8
1979-08-01 15:24:43.580 ,0,0,,0,1.,4.8,0.,4.8,,0,0.,4.8,2.,4.8
1979-08-01 15:24:48.380 ,0,0,,0,0.,4.8,0.,4.8,,0,0.,4.8,0.,4.8
1979-08-01 15:24:53.180 ,0,0,,0,0.,4.8,0.,4.8,,0,0.,4.8,1.,4.8
1979-08-01 15:24:57.980 ,0,0,,0,2.,4.8,1.,4.8,,0,0.,4.8,2.,4.8
1979-08-01 15:25:02.780 ,0,0,,0,5.,4.8,2.,4.8,,0,0.,4.8,2.,4.8
1979-08-01 15:25:07.580 ,0,0,,0,4.,4.8,1.,4.8,,0,0.,4.8,1.,4.8
1979-08-01 15:25:12.380 ,0,0,,0,6.,4.8,0.,4.8,,0,0.,4.8,1.,4.8
1979-08-01 15:25:17.180 ,0,0,,0,3.,4.8,1.,4.8,,0,0.,4.8,0.,4.8
1979-08-01 15:25:21.980 ,0,0,,0,2.,4.8,1.,4.8,,0,0.,4.8,1.,4.8
1979-08-01 15:25:26.780 ,0,0,,0,0.,4.8,0.,4.8,,0,0.,4.8,0.,4.8
1979-08-01 15:25:31.580 ,0,0,,0,0.,4.8,0.,4.8,,0,0.,4.8,0.,4.8
1979-08-01 15:25:36.380 ,1,0,,0,0.,4.8,0.,4.8,,0,0.,4.8,1.,4.8
1979-08-01 15:25:41.180 ,1,0,,0,0.,4.8,0.,4.8,,0,0.,4.8,0.,4.8
1979-08-01 15:25:45.980 ,1,0,,0,0.,4.8,0.,4.8,,0,0.,4.8,1.,4.8
1979-08-01 15:25:50.780 ,1,0,,0,2.,4.8,0.,4.8,,0,0.,4.8,0.,4.8
1979-08-01 15:25:55.580 ,1,0,,0,4.,4.8,0.,4.8,,0,0.,4.8,1.,4.8
1979-08-01 15:26:00.380 ,1,0,,0,4.,4.8,1.,4.8,,0,0.,4.8,2.,4.8
1979-08-01 15:26:05.180 ,1,0,,0,6.,4.8,0.,4.8,,0,0.,4.8,4.,4.8
1979-08-01 15:26:09.980 ,1,0,,0,3.,4.8,0.,4.8,,0,0.,4.8,2.,4.8
1979-08-01 15:26:14.780 ,1,0,,0,0.,4.8,0.,4.8,,0,0.,4.8,1.,4.8
1979-08-01 15:26:19.580 ,1,0,,0,0.,4.8,0.,4.8,,0,0.,4.8,0.,4.8
1979-08-01 15:26:24.380 ,2,0,,0,0.,4.8,0.,4.8,,0,0.,4.8,1.,4.8
1979-08-01 15:26:29.180 ,2,0,,0,0.,4.8,0.,4.8,,0,0.,4.8,2.,4.8
1979-08-01 15:26:33.980 ,2,0,,0,0.,4.8,0.,4.8,,0,0.,4.8,0.,4.8
1979-08-01 15:26:38.780 ,2,0,,0,4.,4.8,0.,4.8,,0,0.,4.8,0.,4.8
1979-08-01 15:26:43.580 ,2,0,,0,4.,4.8,0.,4.8,,0,0.,4.8,0.,4.8
1979-08-01 15:26:48.380 ,2,0,,0,4.,4.8,0.,4.8,,0,0.,4.8,0.,4.8
1979-08-01 15:26:53.180 ,2,0,,0,6.,4.8,0.,4.8,,0,0.,4.8,1.,4.8
1979-08-01 15:26:57.980 ,2,0,,0,4.,4.8,0.,4.8,,0,0.,4.8,1.,4.8
1979-08-01 15:27:02.780 ,2,0,,0,0.,4.8,0.,4.8,,0,0.,4.8,1.,4.8
1979-08-01 15:27:07.580 ,2,0,,0,0.,4.8,0.,4.8,,0,0.,4.8,1.,4.8
1979-08-01 15:27:12.380 ,3,0,,0,0.,4.8,0.,4.8,,0,0.,4.8,1.,4.8
1979-08-01 15:27:17.180 ,3,0,,0,0.,4.8,0.,4.8,,0,0.,4.8,1.,4.8
1979-08-01 15:27:21.980 ,3,0,,0,0.,4.8,0.,4.8,,0,0.,4.8,0.,4.8
1979-08-01 15:27:26.780 ,3,0,,0,5.,4.8,2.,4.8,,0,0.,4.8,1.,4.8
1979-08-01 15:27:31.580 ,3,0,,0,4.,4.8,0.,4.8,,0,0.,4.8,0.,4.8
1979-08-01 15:27:36.380 ,3,0,,0,6.,4.8,0.,4.8,,0,0.,4.8,1.,4.8
1979-08-01 15:27:41.180 ,3,0,,0,4.,4.8,0.,4.8,,0,0.,4.8,0.,4.8
1979-08-01 15:27:45.980 ,3,0,,0,2.,4.8,1.,4.8,,0,0.,4.8,1.,4.8
1979-08-01 15:27:50.780 ,3,0,,0,0.,4.8,0.,4.8,,0,0.,4.8,0.,4.8
1979-08-01 15:27:55.580 ,3,0,,0,0.,4.8,0.,4.8,,0,0.,4.8,0.,4.8
1979-08-01 15:28:00.380 ,4,0,,0,0.,4.8,0.,4.8,,0,0.,4.8,0.,4.8
1979-08-01 15:28:05.180 ,4,0,,0,0.,4.8,0.,4.8,,0,0.,4.8,0.,4.8
1979-08-01 15:28:09.980 ,4,0,,0,0.,4.8,0.,4.8,,0,0.,4.8,2.,4.8
1979-08-01 15:28:14.780 ,4,0,,0,7.,4.8,1.,4.8,,0,0.,4.8,0.,4.8
1979-08-01 15:28:19.580 ,4,0,,0,3.,4.8,0.,4.8,,0,0.,4.8,0.,4.8
1979-08-01 15:28:24.380 ,4,0,,0,5.,4.8,0.,4.8,,0,0.,4.8,1.,4.8
1979-08-01 15:28:29.180 ,4,0,,0,7.,4.8,1.,4.8,,0,0.,4.8,0.,4.8
1979-08-01 15:28:33.980 ,4,0,,0,5.,4.8,2.,4.8,,0,0.,4.8,0.,4.8
1979-08-01 15:28:38.780 ,4,0,,0,0.,4.8,0.,4.8,,0,0.,4.8,1.,4.8
1979-08-01 15:28:43.580 ,4,0,,0,0.,4.8,0.,4.8,,0,0.,4.8,0.,4.8
1979-08-01 15:28:48.380 ,5,0,,0,0.,4.8,0.,4.8,,0,0.,4.8,0.,4.8
1979-08-01 15:28:53.180 ,5,0,,0,0.,4.8,0.,4.8,,0,0.,4.8,0.,4.8
1979-08-01 15:28:57.980 ,5,0,,0,0.,4.8,0.,4.8,,0,0.,4.8,0.,4.8
1979-08-01 15:29:02.780 ,5,0,,0,2.,4.8,0.,4.8,,0,0.,4.8,0.,4.8
1979-08-01 15:29:07.580 ,5,0,,0,5.,4.8,1.,4.8,,0,0.,4.8,0.,4.8
1979-08-01 15:29:12.380 ,5,0,,0,1.,4.8,0.,4.8,,0,0.,4.8,0.,4.8
1979-08-01 15:29:17.180 ,5,0,,0,1.,4.8,0.,4.8,,0,0.,4.8,0.,4.8
1979-08-01 15:29:21.980 ,5,0,,0,6.,4.8,0.,4.8,,0,0.,4.8,1.,4.8
1979-08-01 15:29:26.780 ,5,0,,0,0.,4.8,0.,4.8,,0,0.,4.8,1.,4.8
1979-08-01 15:29:31.580 ,5,0,,0,0.,4.8,0.,4.8,,0,0.,4.8,0.,4.8
1979-08-01 15:30:24.380 ,7,0,,0,0.,4.8,0.,4.8,,0,0.,4.8,0.,4.8
1979-08-01 15:30:29.180 ,7,0,,0,0.,4.8,0.,4.8,,0,0.,4.8,0.,4.8
1979-08-01 15:30:33.980 ,7,0,,0,1.,4.8,0.,4.8,,0,0.,4.8,0.,4.8
1979-08-01 15:30:38.780 ,7,0,,0,7.,4.8,0.,4.8,,0,0.,4.8,0.,4.8
1979-08-01 15:30:43.580 ,7,0,,0,8.,4.8,0.,4.8,,0,0.,4.8,0.,4.8
1979-08-01 15:30:48.380 ,7,0,,0,15.,4.8,0.,4.8,,0,0.,4.8,0.,4.8
1979-08-01 15:30:53.180 ,7,0,,0,5.,4.8,0.,4.8,,0,0.,4.8,0.,4.8
1979-08-01 15:30:57.980 ,7,0,,0,6.,4.8,0.,4.8,,0,0.,4.8,0.,4.8
1979-08-01 15:31:02.780 ,7,0,,0,0.,4.8,0.,4.8,,0,0.,4.8,0.,4.8
1979-08-01 15:31:07.580 ,7,0,,0,0.,4.8,0.,4.8,,0,0.,4.8,1.,4.8
1979-08-01 15:31:12.380 ,3,1,,0,0.,4.8,0.,4.8,,0,0.,4.8,1.,4.8
1979-08-01 15:31:17.180 ,3,1,,0,0.,4.8,0.,4.8,,0,0.,4.8,1.,4.8
1979-08-01 15:31:21.980 ,3,1,,0,0.,4.8,0.,4.8,,0,0.,4.8,0.,4.8
1979-08-01 15:31:26.780 ,3,1,,0,2.,4.8,1.,4.8,,0,0.,4.8,0.,4.8
1979-08-01 15:31:31.580 ,3,1,,0,4.,4.8,0.,4.8,,0,0.,4.8,2.,4.8
1979-08-01 15:31:36.380 ,0,1,,0,7.,4.8,0.,4.8,,0,0.,4.8,1.,4.8
1979-08-01 15:31:41.180 ,0,1,,0,5.,4.8,0.,4.8,,0,0.,4.8,1.,4.8
1979-08-01 15:31:45.980 ,0,1,,0,5.,4.8,0.,4.8,,0,0.,4.8,0.,4.8
1979-08-01 15:31:50.780 ,0,1,,0,0.,4.8,0.,4.8,,0,0.,4.8,1.,4.8
1979-08-01 15:31:55.580 ,0,1,,0,0.,4.8,0.,4.8,,0,0.,4.8,0.,4.8
1979-08-01 15:32:00.380 ,4,1,,0,0.,4.8,0.,4.8,,0,0.,4.8,2.,4.8
1979-08-01 15:32:05.180 ,4,1,,0,0.,4.8,0.,4.8,,0,0.,4.8,2.,4.8
1979-08-01 15:32:09.980 ,4,1,,0,0.,4.8,0.,4.8,,0,0.,4.8,0.,4.8
1979-08-01 15:32:14.780 ,4,1,,0,1.,4.8,0.,4.8,,0,0.,4.8,0.,4.8
1979-08-01 15:32:19.580 ,4,1,,0,2.,4.8,1.,4.8,,0,0.,4.8,1.,4.8
1979-08-01 15:32:24.380 ,6,0,,0,5.,4.8,0.,4.8,,0,0.,4.8,0.,4.8
1979-08-01 15:32:29.180 ,6,0,,0,5.,4.8,0.,4.8,,0,0.,4.8,0.,4.8
1979-08-01 15:32:33.980 ,6,0,,0,2.,4.8,0.,4.8,,0,0.,4.8,2.,4.8